Regional Weather Roundup
Issued by NWS

Home | Current Version | Previous Version | Graphics & Text | Print | Product List | Glossary On
Versions: 1 2 3 4 5 6 7 8 9 10 11 12 13 14 15 16 17 18 19 20 21 22 23 24 25 26 27
000
ASUS45 KBOI 170610
RWRID
WEATHER ROUNDUP FOR IDAHO
NATIONAL WEATHER SERVICE BOISE ID
1200 AM MDT THU APR 17 2014

NOTE: "FAIR" INDICATES FEW OR NO CLOUDS BELOW 12000 FEET
WITH NO SIGNIFICANT WEATHER AND/OR OBSTRUCTIONS TO VISIBILITY

IDZ012-014-170700-
SOUTHWEST IDAHO


CITY           SKY/WX    TMP DP  RH WIND       PRES   REMARKS
BOISE          CLEAR     46  23  40 S9        29.98S
CALDWELL       CLEAR     46  25  42 CALM      30.00S
MOUNTAIN HOME  CLEAR     42  21  43 W8        29.99F
$$

IDZ016-017-170700-
SOUTHCENTRAL IDAHO


CITY           SKY/WX    TMP DP  RH WIND       PRES   REMARKS
BURLEY         CLEAR     37  22  54 SW10      30.00S WCI  30
JEROME         CLEAR     43  21  41 S6        30.00S
TWIN FALLS     CLEAR     43  18  36 S13       30.01S
$$

IDZ019>023-170700-
SOUTHEAST IDAHO


CITY           SKY/WX    TMP DP  RH WIND       PRES   REMARKS
IDAHO FALLS    PTCLDY    41  16  36 SW9       29.99F
POCATELLO      PTCLDY    40  14  34 S10       30.01R WCI  33
REXBURG        CLEAR     42  12  29 S12       29.98F
$$

IDZ006-010-011-018-031-032-170700-
CENTRAL IDAHO MOUNTAINS


CITY           SKY/WX    TMP DP  RH WIND       PRES   REMARKS
MCCALL         PTCLDY    32  22  66 CALM      29.99S
HAILEY         CLEAR     39  18  41 NW7       30.00S WCI  34
STANLEY          N/A     27  18  69 S5        30.04R WCI  22
SALMON         CLEAR     37  19  48 NW3       29.99R
CHALLIS        CLEAR     37  18  46 NW5       29.99R WCI  33
$$

IDZ002-004-006-007-026-170700-
NORTHERN IDAHO


CITY           SKY/WX    TMP DP  RH WIND       PRES   REMARKS
LEWISTON       CLOUDY    51  34  52 S3        29.98S
LOWELL           N/A     46  41  82 N3        30.03S
COEUR D`ALENE  CLOUDY    45  39  81 S8        29.97F
MULLAN PASS    FOG       31  30  96 SW6       29.95S VSB 1/2 WCI  25
$$



USA.gov is the U.S. government's official web portal to all federal, state and local government web resources and services.